Regional Weather Roundup
Issued by NWS Northern Indiana

Home | Current Version | Previous Version | Text Only | Print | Product List | Glossary On
Versions: 1 2 3 4 5 6 7 8 9 10 11 12 13 14 15 16 17 18 19 20 21 22 23 24 25 26 27 28 29 30 31 32 33 34 35 36 37 38 39 40 41 42 43 44 45 46 47 48 49 50
000
ASUS43 KIWX 020310
RWRIWX

KIWX WEATHER ROUNDUP
NATIONAL WEATHER SERVICE NORTHERN INDIANA
1000 PM EST SUN MAR 01 2015

NOTE: "FAIR" INDICATES FEW OR NO CLOUDS BELOW 12,000 FEET WITH NO
SIGNIFICANT WEATHER AND/OR OBSTRUCTIONS TO VISIBILITY.

* THESE STATIONS ARE NOT UNDER NWS QUALITY CONTROL. THEY ALSO MAY NOT
  REPORT WEATHER SUCH AS PRECIPITATION OR FOG.

INZ001>027-020400-
NORTHERN INDIANA

CITY           SKY/WX    TMP DP  RH WIND       PRES   REMARKS
GARY*          CLEAR     22  12  65 SW6       30.33R WCI  15
VALPARAISO     CLEAR     18  13  80 W12       30.32R WCI   5
MICHIGAN CITY* MOCLDY    21  12  68 W7        30.31R WCI  13
LAPORTE*       PTCLDY    20  15  81 W8        30.31R WCI  10
KNOX*            N/A     19   9  63 W9        30.32R WCI   9
SOUTH BEND     MOCLDY    21  15  78 W12       30.29R WCI   9
GOSHEN         CLOUDY    20  15  81 W10       30.27S WCI   9
MONTICELLO*    PTCLDY    16  14  93 W5        30.34R WCI   9
LOGANSPORT*    PTCLDY    14  12  92 W9        30.34R WCI   2
ROCHESTER*     MOCLDY    21  19  93 W8        30.31R WCI  12
WARSAW*        CLOUDY    21  19  93 W9        30.29R WCI  11
ANGOLA*        CLOUDY    21  18  86 W6        30.24S WCI  14
FORT WAYNE     MOCLDY    19  16  88 W13       30.29R WCI   6
HUNTINGTON*    MOCLDY    19  15  83 W7        30.30R WCI  10
PERU/GRISSOM   MOCLDY    15  13  92 W9        30.31R WCI   4
MARION*        PTCLDY    13  10  90 W10       30.32R WCI   0

$$
INZ028>050-020400-
CENTRAL INDIANA

CITY           SKY/WX    TMP DP  RH WIND       PRES   REMARKS
LAFAYETTE      MOCLDY    18  16  92 W7        30.37R WCI   9
KOKOMO*        PTCLDY    16  14  93 W10       30.33R WCI   3
MUNCIE*        CLOUDY    24  20  84 W8        30.30R WCI  15
INDIANAPOLIS   CLOUDY    26  21  81 NW10      30.33R WCI  16

$$
MIZ043>046-050>051-056>058-064>065-071>073-077>080-020400-
SOUTHWEST LOWER MICHIGAN

CITY           SKY/WX    TMP DP  RH WIND       PRES   REMARKS
BATTLE CREEK   CLOUDY    24  16  71 W10       30.22S WCI  14
BENTON HARBOR  MOCLDY    22  17  81 W15       30.28R WCI   9
COLDWATER*     CLOUDY    23  17  79 W9        30.23S WCI  13
HILLSDALE*     CLOUDY    22  18  84 W10       30.20S WCI  11
HOLLAND        CLOUDY    26  19  74 W13       30.24R WCI  15
GRAND RAPIDS   CLOUDY    23  18  81 SW15      30.21S WCI  10
KALAMAZOO      CLOUDY    24  17  74 W13       30.23F WCI  12
STURGIS*       CLOUDY    21  18  86 CALM      30.24S
THREE RIVERS*  CLOUDY    24  18  77 SW6       30.25S WCI  17

$$
OHZ001>008-015>018-024>025-020400-
NORTHWEST OHIO

CITY           SKY/WX    TMP DP  RH WIND       PRES   REMARKS
WAUSEON*       CLOUDY    16  14  93 W8        30.25R FOG     WCI   5
DEFIANCE       CLOUDY    21  18  88 VRB3      30.27S FOG
FINDLAY        PTCLDY    20  17  88 SW7       30.25R FOG     WCI  11
TOLEDO EXPRESS MOCLDY    12  11  95 W8        30.25R FOG     WCI   0
TOLEDO METCALF MOCLDY    18  14  84 SW8       30.26R FOG     WCI   8
LIMA           CLOUDY    24  20  84 W9        30.25R FOG     WCI  14

$$
AND FOR LAKE MICHIGAN COASTAL AND OPEN LAKE BUOY OBSERVATIONS

STATION/POSITION TEMP    WIND        PRES    VSBY  WAVE
                 AIR SEA DIR/SP/G                  HT/PER
                 (F)     (DEG/KT/KT) (MB)    (MI)  (FT/S)
CALUMET HARBOR    20     230/  6/ 10 1025.0S
MICHIGAN CITY     19     220/ 13/ 15   N/A
SAINT JOSEPH      22     210/ 11/ 15 1026.1R

$$
&&


USA.gov is the U.S. government's official web portal to all federal, state and local government web resources and services.